Flag for Ukraine Weather past 2 weeks in Chernobyl, Ukraine

Now
45 °F

Quite cool.


Feels Like: 37 °F
Forecast: 28 / 37 °F
Wind: 20 mph from South

Location: Hostomel

Current Time: Jan 31, 2015 at 7:05:39 AM

Latest Report: Jan 31, 2015 at 6:00 AM


Visibility: N/A

Pressure: 29.09 "Hg

Humidity: 93%

Dew point: 43 °F

Location of ChernobylLocation

Historic Weather in Chernobyl — Graph

°F

Chernobyl temperature yesterday

Maximum temperature yesterday: 43 °F (at 9:00 PM)
Minimum temperature yesterday: 32 °F (at 12:00 AM)
Average temperature yesterday: 37 °F

Past Weeks' High & Low Weather Summary

 TemperatureHumidityPressure
High45 °F (Jan 31, 4:00 AM)100% (Jan 16, 6:00 AM)30.24 "Hg (Jan 16, 6:00 AM)
Low23 °F (Jan 16, 5:00 AM)86% (Jan 25, 3:00 PM)29.09 "Hg (Jan 31, 5:00 AM)
Average32 °F99%29.97 "Hg
* Reported Jan 16 5:00 AM — Jan 31 5:00 AM, Chernobyl, Weather by CustomWeather, © 2014

Note: Actual official high and low records may vary slightly from our data, if they occured in-between our weather recording intervals... More about our weather records

Advertising

Chernobyl weather history for previous 24 hours

 ConditionsComfort  
Time TempWeatherWind HumidityBarometerVisibility
5:00 AM
Jan 31
45 °FQuite cool.17 mph93%29.09 "HgN/A
4:00 AM45 °FQuite cool.20 mph93%29.12 "HgN/A
3:00 AM43 °FQuite cool.17 mph100%29.15 "Hg5 mi
2:00 AM43 °FQuite cool.15 mph100%29.18 "Hg5 mi
1:00 AM43 °FQuite cool.15 mph93%29.21 "Hg5 mi
12:00 AM43 °FQuite cool.13 mph93%29.21 "Hg4 mi
11:00 PM
Jan 30
41 °FQuite cool.15 mph100%29.21 "Hg4 mi
10:00 PM43 °FQuite cool.15 mph100%29.24 "HgN/A
9:00 PM43 °FQuite cool.17 mph100%29.27 "Hg6 mi
8:00 PM41 °FQuite cool.15 mph100%29.30 "HgN/A
7:00 PM39 °FChilly.10 mph100%29.30 "Hg6 mi
6:00 PM41 °FQuite cool.15 mph100%29.33 "HgN/A
5:00 PM39 °FLow clouds.13 mph100%29.33 "HgN/A
4:30 PM39 °FLow clouds.13 mph100%29.36 "HgN/A
4:00 PM39 °FLow clouds.15 mph100%29.36 "HgN/A
3:30 PM39 °FLow clouds.15 mph100%29.36 "HgN/A
3:00 PM39 °FLow clouds.15 mph100%29.36 "HgN/A
2:30 PM39 °FDrizzle. Low clouds.13 mph100%29.36 "Hg5 mi
2:00 PM39 °FDrizzle. Low clouds.13 mph100%29.39 "Hg4 mi
1:30 PM37 °FDrizzle. Low clouds.13 mph100%29.39 "Hg4 mi
1:00 PM37 °FDrizzle. Fog.10 mph100%29.39 "Hg2 mi
12:30 PM37 °FDrizzle. Fog.10 mph100%29.42 "Hg2 mi
12:00 PM37 °FDrizzle. Fog.10 mph100%29.42 "Hg3 mi
11:30 AM37 °FDrizzle. Low clouds.10 mph100%29.45 "Hg4 mi
11:00 AM37 °FDrizzle. Overcast.13 mph93%29.45 "HgN/A
10:30 AM37 °FDrizzle. Overcast.10 mph93%29.45 "Hg6 mi
10:00 AM36 °FDrizzle. Overcast.13 mph100%29.47 "Hg5 mi
9:30 AM36 °FDrizzle. Overcast.13 mph100%29.47 "HgN/A
9:00 AM36 °FDrizzle. Overcast.10 mph100%29.47 "HgN/A
8:00 AM36 °FDrizzle. Overcast.10 mph100%29.47 "Hg4 mi
7:00 AM34 °FDrizzle. Fog.10 mph100%29.47 "Hg3 mi
Weather by CustomWeather, © 2014

See weather overviewHow to use our weather pages